This demonstration page uses our WeatherBlox Daily Observations layout. Learn more.

Left ArrowRight Arrow

36.19886, -115.1175

Hourly Observations for November 28, 2015

Temp ( °F °C ) Dew Point ( °F °C ) Humidity (%) Winds ( mph kmh ) Pressure ( in mb ) Visibility ( mi km ) Precip ( " mm )
12:53 am 00:53 Clear 38 3.3 19 -7.2 46 46 Calm 30.16 1022 10 16 0.00 0.00
1:53 am 01:53 Clear 38 3.3 20 -6.7 48 48 Calm 30.17 1022 10 16 0.00 0.00
2:53 am 02:53 Clear 37 2.8 20 -6.7 50 50 Calm 30.18 1022 10 16 0.00 0.00
3:53 am 03:53 Cloudy 37 2.8 20 -6.7 50 50 W 5 7 30.19 1022 10 16 0.00 0.00
4:53 am 04:53 Cloudy 38 3.3 20 -6.7 48 48 W 3 6 30.20 1023 10 16 0.00 0.00
5:53 am 05:53 Mostly Cloudy 38 3.3 19 -7.2 46 46 Calm 30.21 1023 10 16 0.00 0.00
6:53 am 06:53 Sunny 37 2.8 17 -8.3 44 44 Calm 30.22 1024 10 16 0.00 0.00
7:53 am 07:53 Mostly Sunny 37 2.8 16 -8.9 42 42 N 5 7 30.24 1024 10 16 0.00 0.00
8:53 am 08:53 Sunny 42 5.6 15 -9.4 33 33 N 8 13 30.23 1024 10 16 0.00 0.00
9:53 am 09:53 Sunny 44 6.7 15 -9.4 31 31 NNW 13 20 30.23 1024 10 16 0.00 0.00
10:53 am 10:53 Sunny 45 7.2 16 -8.9 31 31 E 6 9 30.22 1023 10 16 0.00 0.00
11:53 am 11:53 Sunny 48 8.9 15 -9.4 27 27 VRB 6 9 30.18 1022 10 16 0.00 0.00
12:53 pm 12:53 Sunny 50 10 13 -10.6 22 22 N 10 17 30.15 1021 10 16 0.00 0.00
1:53 pm 13:53 Sunny 50 10 12 -11.1 22 22 N 13 20 30.14 1021 10 16 0.00 0.00
2:53 pm 14:53 Mostly Cloudy 50 10 12 -11.1 22 22 NNW 12 19 30.14 1021 10 16 0.00 0.00
3:53 pm 15:53 Mostly Sunny 48 8.9 12 -11.1 23 23 NW 12 19 30.15 1021 10 16 0.00 0.00
4:53 pm 16:53 Clear 47 8.3 12 -11.1 24 24 NNW 8 13 30.15 1021 10 16 0.00 0.00
5:53 pm 17:53 Mostly Clear 45 7.2 13 -10.6 27 27 N 3 6 30.16 1021 10 16 0.00 0.00
6:53 pm 18:53 Clear 43 6.1 13 -10.6 29 29 Calm 30.17 1022 10 16 0.00 0.00
7:53 pm 19:53 Clear 42 5.6 15 -9.4 33 33 Calm 30.20 1023 10 16 0.00 0.00
8:53 pm 20:53 Clear 38 3.3 16 -8.9 41 41 N 7 11 30.20 1023 10 16 0.00 0.00
9:53 pm 21:53 Clear 36 2.2 14 -10 40 40 NW 6 9 30.22 1023 10 16 0.00 0.00
10:53 pm 22:53 Clear 36 2.2 15 -9.4 42 42 Calm 30.22 1023 10 16 0.00 0.00
11:53 pm 23:53 Clear 37 2.8 14 -10 39 39 Calm 30.21 1023 10 16 0.00 0.00

Powered by AerisWeather